User: anonymous   Login
Location: Vancouver
(49.2500°N, 123.1330°W)
Time: 21:27:51
(UTC-07:00)
Language:

YAOGAN 6 - Orbit

View from above orbital plane
View from above orbital plane
View from above satellite
View from above satellite

Ground track
Ground track

The orbit data is extracted from the following two-line orbital elements,

1 34839U 09021A   15088.80927498  .00004701  00000-0  20337-3 0  9998
2 34839 097.2503 159.6910 0029695 309.6545 168.8954 15.22520726329129
Epoch (UTC): 29 March 2015 19:25:21
Eccentricity: 0.0029695
inclination: 97.2503°
perigee height: 478 km
apogee height: 518 km
right ascension of ascending node: 159.6910°
argument of perigee: 309.6545°
revolutions per day: 15.22520726
mean anomaly at epoch: 168.8954°
orbit number at epoch: 32912

The dashed part of the orbit path shows where the satellite is in the earth's shadow,  

DLR